EW4431 Weather Reports


Display with metric or nautical units.
time (UTC)temp
F
wind
direction
speed
MPH
gust
MPH
rain 1hr
in
rain 24hr
in
rain mn
in
humidity
%
barometer
mb
20260906040005 89 287 0.0 0.0 0.00 0.00 0.00 36 1007.3
20260906034503 89 287 0.0 0.0 0.00 0.00 0.00 34 1007.2
20260906033101 90 287 0.0 1.0 0.00 0.00 0.00 33 1007.0
20260906031603 90 266 0.0 1.0 0.00 0.00 0.00 33 1006.9
20260906030054 91 266 0.0 1.0 0.00 0.00 0.00 33 1006.8
20260906024553 91 281 0.0 1.0 0.00 0.00 0.00 32 1006.7
20260906023051 93 283 0.0 2.0 0.00 0.00 0.00 31 1006.4
20260906021548 93 231 0.0 3.0 0.00 0.00 0.00 29 1006.2
20260906020042 94 255 0.0 3.0 0.00 0.00 0.00 28 1006.3
20260906014548 95 282 1.0 4.0 0.00 0.00 0.00 28 1006.4
20260906013044 95 149 0.0 2.0 0.00 0.00 0.00 27 1006.4
20260906011537 96 292 0.0 4.0 0.00 0.00 0.00 27 1006.5
20260906010030 98 243 1.0 4.0 0.00 0.00 0.00 25 1006.6
20260906004527 99 277 1.0 6.0 0.00 0.00 0.00 25 1006.6
20260906003029 100 221 0.0 7.0 0.00 0.00 0.00 25 1006.5
20260906001525 100 239 0.0 6.0 0.00 0.00 0.00 26 1006.4
20260906000024 100 248 2.0 6.0 0.00 0.00 0.00 26 1006.3
20260905234519 101 248 0.0 4.0 0.00 0.00 0.00 25 1006.3
20260905233020 101 289 1.0 7.0 0.00 0.00 0.00 26 1006.4
20260905231515 101 207 1.0 5.0 0.00 0.00 0.00 26 1006.3
20260905230013 101 245 0.0 2.0 0.00 0.00 0.00 29 1006.3
20260905224515 101 196 1.0 5.0 0.00 0.00 0.00 28 1006.3
20260905223008 101 293 0.0 9.0 0.00 0.00 0.00 29 1006.5
20260905221506 102 268 1.0 7.0 0.00 0.00 0.00 27 1006.6
20260905220004 102 271 1.0 6.0 0.00 0.00 0.00 29 1006.9
20260905214558 101 253 1.0 4.0 0.00 0.00 0.00 29 1007.1
20260905213100 101 227 1.0 6.0 0.00 0.00 0.00 28 1007.2
20260905211553 101 72 1.0 5.0 0.00 0.00 0.00 29 1007.5
20260905210057 102 278 0.0 4.0 0.00 0.00 0.00 27 1007.7
20260905204544 101 145 1.0 5.0 0.00 0.00 0.00 28 1007.9
20260905203042 102 302 1.0 4.0 0.00 0.00 0.00 28 1008.1
20260905201538 101 192 0.0 4.0 0.00 0.00 0.00 31 1008.4
20260905200040 100 278 0.0 5.0 0.00 0.00 0.00 30 1008.4
20260905194505 100 256 0.0 2.0 0.00 0.00 0.00 30 1008.7
20260905193002 100 297 0.0 3.0 0.00 0.00 0.00 29 1008.9
20260905191558 99 253 0.0 4.0 0.00 0.00 0.00 30 1009.1
20260905190100 100 224 0.0 3.0 0.00 0.00 0.00 29 1009.3
20260905184552 100 248 0.0 2.0 0.00 0.00 0.00 33 1009.6
20260905183106 100 114 1.0 4.0 0.00 0.00 0.00 28 1009.8
20260905181547 100 71 0.0 4.0 0.00 0.00 0.00 31 1009.9
20260905180042 98 360 1.0 5.0 0.00 0.00 0.00 31 1010.0
20260905174541 97 252 0.0 2.0 0.00 0.00 0.00 31 1010.0
20260905173038 98 347 0.0 2.0 0.00 0.00 0.00 30 1010.0
20260905171545 96 281 0.0 1.0 0.00 0.00 0.00 33 1010.1
20260905170036 95 353 0.0 3.0 0.00 0.00 0.00 30 1010.2
20260905164535 96 40 0.0 4.0 0.00 0.00 0.00 31 1010.0
20260905163034 95 146 0.0 1.0 0.00 0.00 0.00 30 1010.0
20260905161531 94 60 0.0 1.0 0.00 0.00 0.00 33 1010.0
20260905160033 93 352 0.0 2.0 0.00 0.00 0.00 34 1010.2
20260905154528 92 41 0.0 2.0 0.00 0.00 0.00 36 1009.9
20260905153034 91 106 0.0 2.0 0.00 0.00 0.00 36 1009.9
20260905151523 90 82 0.0 2.0 0.00 0.00 0.00 38 1009.7
20260905150023 89 29 0.0 0.0 0.00 0.00 0.00 40 1009.7
20260905144526 87 82 1.0 2.0 0.00 0.00 0.00 42 1009.6
20260905143026 87 85 0.0 1.0 0.00 0.00 0.00 43 1009.6
20260905141520 84 352 0.0 1.0 0.00 0.00 0.00 47 1009.4
20260905140018 83 352 0.0 0.0 0.00 0.00 0.00 49 1009.3
20260905134515 81 352 0.0 0.0 0.00 0.00 0.00 53 1009.2
20260905133013 0 0.0 0.0 0.00 0.00 0.00 1009.0
20260905131505 0 0.0 0.0 0.00 0.00 0.00 1008.9
20260905130002 0 0.0 0.0 0.00 0.00 0.00 1008.8
20260905124556 0 0.0 0.0 0.00 0.00 0.00 1008.6
20260905123051 0 0.0 0.0 0.00 0.00 0.00 1008.5
20260905121545 0 0.0 0.0 0.00 0.00 0.00 1008.4
20260905120040 0 0.0 0.0 0.00 0.00 0.00 1008.3
20260905114540 0 0.0 0.0 0.00 0.00 0.00 1008.3
20260905113032 0 0.0 0.0 0.00 0.00 0.00 1008.2
20260905111628 0 0.0 0.0 0.00 0.00 0.00 1008.1
20260905110053 0 0.0 0.0 0.00 0.00 0.00 1008.0
20260905104554 82 352 0.0 0.0 0.00 0.00 0.00 44 1007.9
20260905103020 83 352 0.0 0.0 0.00 0.00 0.00 44 1007.9
20260905101518 83 352 0.0 0.0 0.00 0.00 0.00 44 1007.9
20260905100014 83 352 0.0 0.0 0.00 0.00 0.00 43 1007.8
20260905094514 84 352 0.0 0.0 0.00 0.00 0.00 42 1007.8
20260905093013 85 352 0.0 1.0 0.00 0.00 0.00 41 1007.8
20260905091513 85 352 0.0 0.0 0.00 0.00 0.00 41 1007.7
20260905090010 84 351 0.0 1.0 0.00 0.00 0.00 42 1007.7
20260905084509 84 352 0.0 0.0 0.00 0.00 0.00 43 1007.8
20260905083007 84 352 0.0 0.0 0.00 0.00 0.00 41 1007.8
20260905081507 84 354 0.0 0.0 0.00 0.00 0.00 40 1007.8
20260905080003 85 354 0.0 0.0 0.00 0.00 0.00 39 1007.8
20260905074606 87 354 0.0 0.0 0.00 0.00 0.00 37 1007.8
20260905073056 87 234 0.0 0.0 0.00 0.00 0.00 37 1007.7
20260905071556 87 233 0.0 1.0 0.00 0.00 0.00 36 1007.7
20260905070030 87 209 0.0 1.0 0.00 0.00 0.00 36 1007.7
20260905064523 88 208 0.0 1.0 0.00 0.00 0.00 35 1007.7
20260905063020 88 212 0.0 0.0 0.00 0.00 0.00 36 1007.6
20260905061518 89 236 0.0 1.0 0.00 0.00 0.00 34 1007.3
20260905060017 90 209 0.0 3.0 0.00 0.00 0.00 34 1007.3
20260905054518 89 220 0.0 3.0 0.00 0.00 0.00 35 1007.3
20260905053044 89 219 0.0 1.0 0.00 0.00 0.00 36 1007.2
20260905051543 90 243 0.0 1.0 0.00 0.00 0.00 34 1007.2
20260905050010 91 265 0.0 1.0 0.00 0.00 0.00 34 1007.1
20260905044509 91 269 0.0 1.0 0.00 0.00 0.00 33 1007.1
20260905043003 92 240 0.0 1.0 0.00 0.00 0.00 31 1006.9
20260905041600 92 256 0.0 1.0 0.00 0.00 0.00 30 1006.9